When you browse on this site, cookies collect data to enhance your experience and personalize the content and advertising you see.
Visit our Privacy Policy to learn more. By continuing to use the site, you agree to this use of cookies and data.

Hourly Weather Yeroham

Today, 2 July, Thursday

Time Temperature Precipitation Wind Pressure Humidity
00:00 +22°C° 0 mm 1 mps 712 mmHg 63%
01:00 +21°C° 0 mm 1 mps 711 mmHg 65%
02:00 +20°C° 0 mm 1 mps 711 mmHg 66%
03:00 +20°C° 0 mm 1 mps 711 mmHg 65%
04:00 +17°C° 0 mm 0 mps 711 mmHg 64%
05:00 +17°C° 0 mm 0 mps 712 mmHg 64%
06:00 +20°C° 0 mm 0 mps 712 mmHg 52%
07:00 +26°C° 0 mm 1 mps 712 mmHg 40%
08:00 +29°C° 0 mm 1 mps 713 mmHg 29%
09:00 +31°C° 0 mm 2 mps 713 mmHg 25%
10:00 +34°C° 0 mm 3 mps 713 mmHg 21%
11:00 +36°C° 0 mm 3 mps 713 mmHg 17%
12:00 +36°C° 0 mm 4 mps 713 mmHg 16%
13:00 +37°C° 0 mm 4 mps 712 mmHg 15%
14:00 +39°C° 0 mm 5 mps 712 mmHg 14%
15:00 +38°C° 0 mm 6 mps 712 mmHg 18%
16:00 +36°C° 0 mm 7 mps 712 mmHg 22%
17:00 +34°C° 0 mm 8 mps 711 mmHg 26%
18:00 +32°C° 0 mm 7 mps 711 mmHg 33%
19:00 +28°C° 0 mm 6 mps 711 mmHg 41%
20:00 +26°C° 0 mm 5 mps 711 mmHg 49%
21:00 +25°C° 0 mm 4 mps 711 mmHg 49%
22:00 +24°C° 0 mm 2 mps 712 mmHg 49%
23:00 +24°C° 0 mm 1 mps 712 mmHg 50%

Tomorrow, 3 July, Friday

Time Temperature Precipitation Wind Pressure Humidity
00:00 +23°C° 0 mm 1 mps 711 mmHg 51%
01:00 +22°C° 0 mm 1 mps 711 mmHg 52%
02:00 +19°C° 0 mm 0 mps 711 mmHg 53%
03:00 +19°C° 0 mm 0 mps 711 mmHg 51%
04:00 +19°C° 0 mm 0 mps 711 mmHg 50%
05:00 +19°C° 0 mm 0 mps 711 mmHg 49%
06:00 +24°C° 0 mm 1 mps 712 mmHg 42%
07:00 +26°C° 0 mm 2 mps 712 mmHg 35%
08:00 +29°C° 0 mm 2 mps 712 mmHg 29%
09:00 +31°C° 0 mm 3 mps 713 mmHg 25%
10:00 +34°C° 0 mm 3 mps 713 mmHg 22%
11:00 +36°C° 0 mm 3 mps 713 mmHg 18%
12:00 +37°C° 0 mm 4 mps 713 mmHg 18%
13:00 +39°C° 0 mm 5 mps 712 mmHg 17%
14:00 +40°C° 0 mm 6 mps 712 mmHg 16%
15:00 +38°C° 0 mm 7 mps 712 mmHg 21%
16:00 +37°C° 0 mm 9 mps 711 mmHg 25%
17:00 +34°C° 0 mm 10 mps 711 mmHg 29%
18:00 +31°C° 0 mm 9 mps 711 mmHg 40%
19:00 +28°C° 0 mm 7 mps 712 mmHg 51%
20:00 +26°C° 0 mm 6 mps 712 mmHg 62%
21:00 +25°C° 0 mm 5 mps 712 mmHg 65%
22:00 +23°C° 0 mm 4 mps 712 mmHg 69%
23:00 +23°C° 0 mm 2 mps 712 mmHg 72%

Day after tomorrow, 4 July, Saturday

Time Temperature Precipitation Wind Pressure Humidity
00:00 +23°C° 0 mm 2 mps 712 mmHg 73%
01:00 +23°C° 0 mm 2 mps 712 mmHg 74%
02:00 +21°C° 0 mm 2 mps 712 mmHg 75%
03:00 +21°C° 0 mm 2 mps 712 mmHg 77%
04:00 +21°C° 0 mm 2 mps 712 mmHg 78%
05:00 +21°C° 0 mm 2 mps 712 mmHg 80%
06:00 +24°C° 0 mm 2 mps 713 mmHg 68%
07:00 +26°C° 0 mm 2 mps 713 mmHg 56%
08:00 +29°C° 0 mm 2 mps 713 mmHg 44%
09:00 +31°C° 0 mm 3 mps 713 mmHg 38%
10:00 +34°C° 0 mm 4 mps 714 mmHg 31%
11:00 +36°C° 0 mm 4 mps 714 mmHg 24%
12:00 +37°C° 0 mm 5 mps 713 mmHg 23%
13:00 +38°C° 0 mm 6 mps 713 mmHg 22%
14:00 +39°C° 0 mm 7 mps 713 mmHg 21%
15:00 +38°C° 0 mm 8 mps 713 mmHg 24%
16:00 +35°C° 0 mm 8 mps 712 mmHg 27%
17:00 +33°C° 0 mm 8 mps 712 mmHg 29%
18:00 +30°C° 0 mm 7 mps 712 mmHg 38%
19:00 +28°C° 0 mm 6 mps 712 mmHg 46%
20:00 +26°C° 0 mm 5 mps 712 mmHg 54%
21:00 +25°C° 0 mm 4 mps 712 mmHg 56%
22:00 +24°C° 0 mm 3 mps 712 mmHg 58%
23:00 +23°C° 0 mm 2 mps 712 mmHg 60%

5 July, Sunday

Time Temperature Precipitation Wind Pressure Humidity
00:00 +21°C° 0 mm 2 mps 712 mmHg 64%
01:00 +21°C° 0 mm 2 mps 712 mmHg 68%
02:00 +20°C° 0 mm 2 mps 712 mmHg 72%
03:00 +20°C° 0 mm 2 mps 711 mmHg 77%
04:00 +20°C° 0 mm 2 mps 711 mmHg 82%
05:00 +19°C° 0 mm 2 mps 711 mmHg 86%
06:00 +23°C° 0 mm 2 mps 712 mmHg 75%
07:00 +25°C° 0 mm 2 mps 712 mmHg 63%
08:00 +27°C° 0 mm 2 mps 712 mmHg 51%
09:00 +29°C° 0 mm 2 mps 712 mmHg 42%
10:00 +33°C° 0 mm 3 mps 712 mmHg 32%
11:00 +35°C° 0 mm 4 mps 712 mmHg 23%
12:00 +36°C° 0 mm 5 mps 712 mmHg 22%
13:00 +37°C° 0 mm 5 mps 711 mmHg 21%
14:00 +38°C° 0 mm 6 mps 711 mmHg 19%
15:00 +36°C° 0 mm 7 mps 711 mmHg 23%
16:00 +35°C° 0 mm 8 mps 711 mmHg 26%
17:00 +33°C° 0 mm 9 mps 711 mmHg 29%
18:00 +30°C° 0 mm 7 mps 711 mmHg 41%
19:00 +27°C° 0 mm 6 mps 711 mmHg 52%
20:00 +25°C° 0 mm 5 mps 711 mmHg 64%
21:00 +23°C° 0 mm 5 mps 711 mmHg 71%
22:00 +22°C° 0 mm 4 mps 711 mmHg 78%
23:00 +21°C° 0 mm 4 mps 711 mmHg 86%

6 July, Monday

Time Temperature Precipitation Wind Pressure Humidity
00:00 +21°C° 0 mm 3 mps 711 mmHg 88%
01:00 +21°C° 0 mm 3 mps 711 mmHg 91%
02:00 +21°C° 0 mm 2 mps 710 mmHg 94%
03:00 +20°C° 0 mm 2 mps 710 mmHg 93%
04:00 +20°C° 0 mm 2 mps 710 mmHg 92%
05:00 +20°C° 0 mm 2 mps 710 mmHg 91%
06:00 +23°C° 0 mm 2 mps 711 mmHg 79%
07:00 +25°C° 0 mm 3 mps 711 mmHg 67%
08:00 +27°C° 0 mm 3 mps 711 mmHg 55%
09:00 +29°C° 0 mm 4 mps 711 mmHg 46%
10:00 +33°C° 0 mm 4 mps 711 mmHg 36%
11:00 +35°C° 0 mm 5 mps 712 mmHg 26%
12:00 +36°C° 0 mm 6 mps 711 mmHg 24%
13:00 +37°C° 0 mm 8 mps 711 mmHg 23%
14:00 +38°C° 0 mm 9 mps 711 mmHg 21%
15:00 +35°C° 0 mm 9 mps 711 mmHg 26%
16:00 +34°C° 0 mm 9 mps 711 mmHg 31%
17:00 +32°C° 0 mm 10 mps 711 mmHg 36%
18:00 +29°C° 0 mm 8 mps 711 mmHg 47%
19:00 +27°C° 0 mm 6 mps 711 mmHg 57%
20:00 +25°C° 0 mm 5 mps 711 mmHg 68%
21:00 +23°C° 0 mm 4 mps 711 mmHg 72%
22:00 +22°C° 0 mm 3 mps 711 mmHg 77%
23:00 +23°C° 0 mm 2 mps 711 mmHg 81%

7 July, Tuesday

Time Temperature Precipitation Wind Pressure Humidity
00:00 +21°C° 0 mm 2 mps 711 mmHg 84%
01:00 +21°C° 0 mm 2 mps 711 mmHg 88%
02:00 +20°C° 0 mm 3 mps 711 mmHg 91%
03:00 +20°C° 0 mm 2 mps 711 mmHg 91%
04:00 +20°C° 0 mm 2 mps 711 mmHg 92%
05:00 +20°C° 0 mm 2 mps 711 mmHg 92%
06:00 +23°C° 0 mm 2 mps 712 mmHg 80%
07:00 +25°C° 0 mm 2 mps 712 mmHg 68%
08:00 +27°C° 0 mm 2 mps 712 mmHg 56%
09:00 +29°C° 0 mm 3 mps 713 mmHg 46%
10:00 +33°C° 0 mm 4 mps 713 mmHg 36%
11:00 +35°C° 0 mm 5 mps 713 mmHg 25%
12:00 +35°C° 0 mm 6 mps 713 mmHg 25%
13:00 +37°C° 0 mm 8 mps 713 mmHg 25%
14:00 +37°C° 0 mm 9 mps 713 mmHg 24%
15:00 +34°C° 0 mm 9 mps 713 mmHg 30%
16:00 +33°C° 0 mm 9 mps 712 mmHg 35%
17:00 +31°C° 0 mm 10 mps 712 mmHg 40%
18:00 +28°C° 0 mm 8 mps 712 mmHg 50%
19:00 +26°C° 0 mm 6 mps 713 mmHg 60%
20:00 +23°C° 0 mm 5 mps 713 mmHg 70%
21:00 +22°C° 0 mm 4 mps 713 mmHg 76%
22:00 +22°C° 0 mm 3 mps 713 mmHg 83%
23:00 +21°C° 0 mm 3 mps 713 mmHg 90%
Show more